IW4EMA-3 Weather Reports


time (UTC)temp
C
wind
direction
speed
KPH
gust
KPH
rain 1hr
cm
rain 24hr
cm
rain mn
cm
humidity
%
barometer
mb
20260503053425 12 0.0 0.0 0.00 0.00 0.00 76 1019.0
20260503052437 12 0.0 0.0 0.00 0.00 0.00 77 1019.0
20260503051505 12 0.0 0.0 0.00 0.00 0.00 78 1019.0
20260503050418 11 0.0 0.0 0.00 0.00 0.00 80 1019.1
20260503045445 11 227 1.6 3.2 0.00 0.00 0.00 80 1019.0
20260503044417 11 227 0.0 1.6 0.00 0.00 0.00 80 1018.7
20260503043425 11 0.0 0.0 0.00 0.00 0.00 81 1018.8
20260503042417 10 0.0 0.0 0.00 0.00 0.00 82 1018.9
20260503041425 10 0.0 0.0 0.00 0.00 0.00 83 1018.8
20260503040417 9 182 1.6 1.6 0.00 0.00 0.00 84 1018.7
20260503035424 10 0.0 0.0 0.00 0.00 0.00 83 1018.8
20260503034418 10 0.0 0.0 0.00 0.00 0.00 83 1018.9
20260503033425 10 0.0 0.0 0.00 0.00 0.00 83 1018.8
20260503032417 9 0.0 0.0 0.00 0.00 0.00 83 1018.7
20260503031426 10 0.0 0.0 0.00 0.00 0.00 82 1018.7
20260503030417 10 0.0 0.0 0.00 0.00 0.00 81 1018.9
20260503025425 10 0.0 0.0 0.00 0.00 0.00 80 1018.9
20260503024417 10 0.0 0.0 0.00 0.00 0.00 79 1019.0
20260503023425 10 0.0 0.0 0.00 0.00 0.00 79 1019.0
20260503022417 11 0.0 0.0 0.00 0.00 0.00 76 1019.0
20260503021426 11 0.0 0.0 0.00 0.00 0.00 75 1019.2
20260503020417 11 0.0 0.0 0.00 0.00 0.00 74 1019.0
20260503015445 12 0.0 0.0 0.00 0.00 0.00 72 1019.0
20260503014457 12 0.0 0.0 0.00 0.00 0.00 73 1019.1
20260503013425 12 0.0 0.0 0.00 0.00 0.00 72 1019.2
20260503012417 12 0.0 0.0 0.00 0.00 0.00 72 1019.2
20260503011425 12 0.0 0.0 0.00 0.00 0.00 74 1019.2
20260503010417 11 0.0 0.0 0.00 0.00 0.00 75 1019.2
20260503005426 11 0.0 0.0 0.00 0.00 0.00 75 1019.4
20260503004437 11 0.0 0.0 0.00 0.00 0.00 75 1019.3
20260503003425 12 0.0 0.0 0.00 0.00 0.00 73 1019.4
20260503002417 13 0.0 0.0 0.00 0.00 0.00 67 1019.4
20260503001425 13 180 1.6 1.6 0.00 0.00 0.00 65 1019.5
20260503000417 13 183 0.0 1.6 0.00 0.00 0.00 65 1019.6
20260502235529 13 183 0.0 1.6 0.00 0.00 0.00 64 1019.5
20260502234521 14 184 0.0 1.6 0.00 0.00 0.00 63 1019.8
20260502233530 14 184 1.6 1.6 0.00 0.00 0.00 61 1019.7
20260502232522 15 186 1.6 1.6 0.00 0.00 0.00 61 1019.8
20260502231529 14 197 0.0 1.6 0.00 0.00 0.00 64 1019.9
20260502230522 14 0.0 0.0 0.00 0.00 0.00 62 1020.0
20260502225529 15 197 1.6 1.6 0.00 0.00 0.00 60 1020.0
20260502224521 15 194 1.6 3.2 0.00 0.00 0.00 60 1020.1
20260502223530 15 189 1.6 1.6 0.00 0.00 0.00 60 1020.3
20260502222522 15 185 1.6 3.2 0.00 0.00 0.00 59 1020.2
20260502221530 15 154 3.2 4.8 0.00 0.00 0.00 59 1020.2
20260502220522 16 182 3.2 3.2 0.00 0.00 0.00 59 1020.3
20260502215529 16 169 3.2 3.2 0.00 0.00 0.00 59 1020.3
20260502214541 16 171 1.6 3.2 0.00 0.00 0.00 59 1020.3
20260502213530 16 179 1.6 3.2 0.00 0.00 0.00 57 1020.3
20260502212522 16 176 1.6 3.2 0.00 0.00 0.00 56 1020.3
20260502211530 16 178 1.6 1.6 0.00 0.00 0.00 57 1020.3
20260502210542 16 178 1.6 1.6 0.00 0.00 0.00 58 1020.3
20260502205529 16 179 1.6 1.6 0.00 0.00 0.00 59 1020.4
20260502204521 16 177 1.6 1.6 0.00 0.00 0.00 59 1020.4
20260502203530 16 178 0.0 1.6 0.00 0.00 0.00 59 1020.5
20260502202522 17 175 0.0 1.6 0.00 0.00 0.00 57 1020.4
20260502201530 17 174 0.0 1.6 0.00 0.00 0.00 54 1020.5
20260502200521 17 174 1.6 1.6 0.00 0.00 0.00 54 1020.6
20260502195529 18 102 4.8 4.8 0.00 0.00 0.00 53 1020.5
20260502194521 18 202 0.0 1.6 0.00 0.00 0.00 51 1020.4
20260502193550 18 202 1.6 1.6 0.00 0.00 0.00 50 1020.4
20260502192602 18 202 0.0 1.6 0.00 0.00 0.00 50 1020.5
20260502191530 18 202 0.0 1.6 0.00 0.00 0.00 50 1020.3
20260502190522 19 202 0.0 1.6 0.00 0.00 0.00 49 1020.4
20260502185530 19 0.0 0.0 0.00 0.00 0.00 48 1020.4
20260502184522 20 202 0.0 1.6 0.00 0.00 0.00 47 1020.3
20260502183530 20 203 0.0 1.6 0.00 0.00 0.00 47 1020.2
20260502182522 20 205 0.0 1.6 0.00 0.00 0.00 47 1020.3
20260502181530 20 211 3.2 4.8 0.00 0.00 0.00 45 1020.3
20260502180521 21 220 3.2 4.8 0.00 0.00 0.00 42 1020.1
20260502163530 23 175 4.8 6.4 0.00 0.00 0.00 36 1020.5
20260502162522 23 203 4.8 9.7 0.00 0.00 0.00 37 1020.4
20260502161550 24 185 4.8 9.7 0.00 0.00 0.00 35 1020.6
20260502160522 23 192 4.8 6.4 0.00 0.00 0.00 35 1020.7
20260502151546 23 194 1.6 3.2 0.00 0.00 0.00 34 1021.0
20260502150522 23 205 6.4 11.3 0.00 0.00 0.00 34 1021.2
20260502130522 23 171 4.8 6.4 0.00 0.00 0.00 34 1022.7
20260502123530 23 198 3.2 4.8 0.00 0.00 0.00 34 1023.0
20260502122522 22 91 3.2 3.2 0.00 0.00 0.00 34 1023.1
20260502121530 23 187 3.2 6.4 0.00 0.00 0.00 35 1023.2
20260502120522 23 219 6.4 14.5 0.00 0.00 0.00 33 1023.4
20260502115530 22 222 6.4 14.5 0.00 0.00 0.00 34 1023.5
20260502114522 22 204 8.0 12.9 0.00 0.00 0.00 34 1023.6
20260502113550 22 173 1.6 3.2 0.00 0.00 0.00 33 1023.7
20260502112522 23 213 6.4 11.3 0.00 0.00 0.00 33 1023.9
20260502111550 24 33 3.2 3.2 0.00 0.00 0.00 33 1024.0
20260502110522 23 300 3.2 4.8 0.00 0.00 0.00 34 1024.3
20260502105530 24 293 1.6 3.2 0.00 0.00 0.00 33 1024.2
20260502104522 24 35 3.2 4.8 0.00 0.00 0.00 32 1024.5
20260502103531 23 248 3.2 4.8 0.00 0.00 0.00 35 1024.5
20260502102522 23 199 1.6 3.2 0.00 0.00 0.00 35 1024.6
20260502100522 23 146 1.6 3.2 0.00 0.00 0.00 33 1025.0
20260502091531 21 244 1.6 3.2 0.00 0.00 0.00 36 1025.3
20260502090522 22 298 1.6 3.2 0.00 0.00 0.00 40 1025.3
20260502061619 14 0.0 0.0 0.00 0.00 0.00 63 1026.0
20260502060330 13 302 1.6 3.2 0.00 0.00 0.00 67 1026.0
20260502055322 13 244 0.0 1.6 0.00 0.00 0.00 68 1026.0
20260502054330 12 243 0.0 1.6 0.00 0.00 0.00 66 1026.1